Content
SEND FEEDBACK

Daily
Averages
Monthly
Summary
United States of America

BARRINGTON, ILLINOIS


Home > North America > United States > Illinois
Elevation: 810 feet     Latitude: 42 10N     Longitude: 088 09W

WEATHER
 
SELECT A DAY
Number of Records: 196,506;   Date Range: 1/1/95 - 7/23/14
 
SHARE

PRINT THIS DATA

[ ← Previous Day ]
WEATHER ALMANAC - MAY 7, 2013
[ Next Day → ]
[ °C ]   °F
Weather ElementAverageHighLow
Temperature63.1 °F75 °F (2:51 pm)48 °F (4:51 am)
Dewpoint41 °F44.1 °F (4:51 pm)37 °F (3:51 am)
Humidity46.8 %71 % (5:51 am)32 % (1:51 pm)
Barometer30.01 in30.05 in (8:51 am)29.98 in (4:51 pm)
Wind Speed6 mph9.2 mph (7:51 am)
Wind Gust16.1 mph (4:51 pm)
Weather ElementAverage
Visibility10 mi
Wind DirectionESE (117 °)

Weather ElementTotal
Precipitation---
Heating Degree Days3.5 (Base 65)
Growing Degree Days11.5 (Base 50)
Averaged from 23 records on May 7, 2013
WEATHER CONDITIONS BREAKOUT
WIND DIRECTION BREAKOUT
WEATHER BY HOUR - MAY 7, 2013
[ °C ]   °F
Local TimeTemperatureDewpointHumidityBarometerVisibilityWind DirectionWind SpeedGust SpeedPrecipitationEventsConditions
1:51 AM51.1 °F39.0 °F63 %30.00 in10.0 miCalmPartly Cloudy
2:51 AM51.8 °F37.4 °F58 %29.99 in10.0 miNNW (330°)4.6 mphPartly Cloudy
3:51 AM48.9 °F37.0 °F64 %29.99 in10.0 miCalmPartly Cloudy
4:51 AM48.0 °F37.9 °F68 %30.00 in10.0 miNW (320°)6.9 mphPartly Cloudy
5:51 AM48.0 °F39.0 °F71 %30.01 in10.0 miNNW (330°)4.6 mphScattered Clouds
6:51 AM52.0 °F41.0 °F66 %30.02 in10.0 miNNW (340°)3.5 mphMostly Cloudy
7:51 AM57.9 °F39.0 °F49 %30.03 in10.0 miNorth (360°)9.2 mphMostly Cloudy
8:51 AM63.0 °F37.9 °F40 %30.05 in10.0 miNE (40°)6.9 mphMostly Cloudy
9:51 AM64.9 °F37.0 °F36 %30.05 in10.0 miENE (60°)6.9 mphMostly Cloudy
10:51 AM68.0 °F41.0 °F37 %30.04 in10.0 miNE (50°)8.1 mphMostly Cloudy
11:51 AM71.1 °F41.0 °F34 %30.03 in10.0 miENE (60°)8.1 mphScattered Clouds
12:51 PM73.9 °F43.0 °F33 %30.02 in10.0 miNE (40°)5.8 mphScattered Clouds
1:51 PM73.9 °F42.1 °F32 %30.01 in10.0 miENE (60°)9.2 mphMostly Cloudy
2:51 PM75.0 °F43.0 °F32 %30.00 in10.0 miENE (70°)6.9 mphMostly Cloudy
3:51 PM75.0 °F43.0 °F32 %29.99 in10.0 miEast (80°)9.2 mphMostly Cloudy
4:51 PM73.9 °F44.1 °F34 %29.98 in10.0 miEast (80°)8.1 mph16.1 mphMostly Cloudy
5:51 PM75.0 °F43.0 °F32 %29.98 in10.0 miENE (60°)4.6 mphMostly Cloudy
6:51 PM73.0 °F43.0 °F34 %29.98 in10.0 miENE (70°)8.1 mphMostly Cloudy
7:51 PM69.1 °F41.0 °F36 %29.99 in10.0 miENE (70°)6.9 mphMostly Cloudy
8:51 PM64.0 °F42.1 °F45 %29.99 in10.0 miENE (70°)5.8 mphScattered Clouds
9:51 PM62.1 °F43.0 °F50 %30.01 in10.0 miENE (70°)3.5 mphScattered Clouds
10:51 PM57.0 °F44.1 °F62 %30.01 in10.0 miENE (70°)6.9 mphPartly Cloudy
11:51 PM54.0 °F44.1 °F69 %30.01 in10.0 miENE (60°)4.6 mphPartly Cloudy
Hourly data recorded from KORD, located miles away from Barrington, Illinois







STORIES FROM OUR PARTNERS